Regional Weather Roundup
Issued by NWS

Home | Current Version | Previous Version | Graphics & Text | Print | Product List | Glossary On
Versions: 1 2 3 4 5 6 7 8 9 10 11 12 13 14 15 16 17 18 19 20 21 22 23 24 25 26 27 28 29 30 31 32 33 34 35 36 37 38 39 40 41 42 43 44 45 46 47 48 49 50
000
ASUS43 KMKX 300517
RWRWI

WISCONSIN REGIONAL WEATHER ROUNDUP
NATIONAL WEATHER SERVICE MILWAUKEE/SULLIVAN WI
1200 AM CDT SAT MAY 30 2015

NOTE: "FAIR" INDICATES FEW OR NO CLOUDS BELOW 12,000 FEET WITH NO
SIGNIFICANT WEATHER AND/OR OBSTRUCTIONS TO VISIBILITY.

WIZ001-002-006>008-014>016-023>028-300600-
NORTHWEST WISCONSIN

CITY           SKY/WX    TMP DP  RH WIND       PRES   REMARKS
SUPERIOR ARPT  CLOUDY    52  43  71 N8        30.10R
ASHLAND        CLOUDY    53  46  77 N10       30.06R
HAYWARD        LGT RAIN  50  47  89 N8        30.07R FOG
SIREN          CLOUDY    51  46  82 N12       30.08R
CUMBERLAND     CLOUDY    50  48  93 N15G23    30.05R
RICE LAKE      CLOUDY    53  49  87 N16G22    30.05R
CHETEK         DRIZZLE   54  53  97 N13G23    30.02R
LADYSMITH      DRIZZLE   57  55  92 N9        30.02R
EAU CLAIRE     LGT RAIN  58  55  90 N9        29.97R
MENOMONIE      LGT RAIN  56  56  99 N14       30.00R
NEW RICHMOND   LGT RAIN  53  52  96 N14       30.04R
OSCEOLA        LGT RAIN  53  52  97 N12       30.09R
$$

WIZ003>005-009-010-017-018-300600-
NORTH CENTRAL WISCONSIN

CITY           SKY/WX    TMP DP  RH WIND       PRES   REMARKS
MANITOWISH WTR RAIN      53  53 100 N8G16     30.01R
ARBOR VITAE    LGT RAIN  57  55  94 N6        30.00R
WOODRUFF       LGT RAIN  57  55  94 N6        30.00R
RHINELANDER    LGT RAIN  55  53  93 N6        29.99R
EAGLE RIVER    RAIN      55  55 100 N6        29.99R
LAND O LAKES   LGT RAIN  55  54  97 N7        30.01R
PHILLIPS       DRIZZLE   54  54  97 N9        29.99S
TOMAHAWK       RAIN      56  55  95 N5        29.98R
MEDFORD        LGT RAIN  57  55  95 N9G18     29.96R
MERRILL        RAIN      59  59 100 N9        29.95F
$$

WIZ029-030-035-036-043>047-300600-
CENTRAL WISCONSIN

CITY           SKY/WX    TMP DP  RH WIND       PRES   REMARKS
WAUSAU         LGT RAIN  61  60  97 N3        29.92R
MOSINEE        LGT RAIN  61  61 100 N6        29.94R
MARSHFIELD     LGT RAIN  63  59  87 NE10      29.93R
STEVENS POINT  LGT RAIN  61  59  94 N7        29.93R
WAUPACA        LGT RAIN  67  66  97 CALM      29.91S
WAUTOMA        LGT RAIN  66  66 100 CALM      29.91S FOG
WISC RAPIDS    LGT RAIN  65  61  87 NE10      29.92S
CAMP DOUGLAS   CLOUDY    64  64 100 CALM      29.91R FOG
$$

WIZ011>013-019>022-031-037>040-048>050-300600-
NORTHEAST WISCONSIN

CITY           SKY/WX    TMP DP  RH WIND       PRES   REMARKS
ANTIGO         LGT RAIN  59  59  99 N7        29.94S
SHAWANO        LGT RAIN  65  64  94 N8        29.92R
OCONTO         CLOUDY    64  64 100 N5        29.89R
STURGEON BAY   CLOUDY    63  59  88 NW5       29.92R
GREEN BAY      LGT RAIN  65  64  97 W3        29.91R FOG
MANITOWOC      NOT AVBL
APPLETON       LGT RAIN  63  63 100 CALM      29.91F
CLINTONVILLE   LGT RAIN  64  63  94 N3        29.90F
OSHKOSH        LGT RAIN  65  63  93 CALM      29.90F
$$

WIZ032>034-041-042-053>061-300600-
SOUTHWEST WISCONSIN

CITY           SKY/WX    TMP DP  RH WIND       PRES   REMARKS
LA CROSSE      CLOUDY    67  64  90 CALM      29.90S
SPARTA         RAIN      64  63  96 CALM      29.92R
VIROQUA        CLOUDY    64  64 100 E5        29.92S
BOSCOBEL       CLOUDY    68  65  90 CALM      29.90S
PRAIRIE DU CHI LGT RAIN  68  64  86 CALM      29.89S
PLATTEVILLE    CLOUDY    69  66  90 SW9       29.93S
$$

WIZ056-057-062-063-064-067-068-300600-
SOUTH CENTRAL WISCONSIN

CITY           SKY/WX    TMP DP  RH WIND       PRES   REMARKS
REEDSBURG      DRIZZLE   64  64  99 CALM      29.91F
BARABOO/DELLS  RAIN      64  62  93 CALM      29.92S
LONE ROCK      CLOUDY    67  65  93 CALM      29.91S
MINERAL POINT  CLOUDY    70  66  88 SW6       29.92S
MADISON        CLOUDY    67  63  87 N6        29.91R
MIDDLETON      CLOUDY    69  66  90 NE5       29.92R
WATERTOWN      CLOUDY   N/A N/A N/A N10G16    29.92R
MONROE         CLOUDY    70  64  83 SW12      29.93S
JANESVILLE     CLOUDY    70  68  94 W6        29.92S
$$

WIZ051-052-058>065-066-070>072-300600-
SOUTHEAST WISCONSIN

CITY           SKY/WX    TMP DP  RH WIND       PRES   REMARKS
MILWAUKEE      CLOUDY    72  64  76 SW8       29.90S
WAUKESHA       CLOUDY    68  63  83 SW9       29.92S
MILWAUKEE/TIMM CLOUDY    70  63  78 SW7       29.90F
RACINE         CLOUDY    71  64  78 SW8       29.92S
BURLINGTON     CLOUDY    67  63  86 SW6       29.92S
KENOSHA        CLOUDY    71  64  78 SW7       29.92S
FOND DU LAC    LGT RAIN  65  63  93 CALM      29.91S
SHEBOYGAN      CLOUDY    67  63  87 NW7       29.90R
WEST BEND      CLOUDY    68  64  88 NW5       29.91R
JUNEAU         RAIN      64  63  95 N6        29.93S
$$

LSZ147-162-300600-
LAKE SUPERIOR

STATION/POSITION TIME  TEMP    WIND        PRES    WAVE
                       AIR SEA DIR/SP/G            HT/PER
                 (UTC) (F)     (DEG/KT/KT) (MB)    (FT/S)
W MID LAKE BUOY  0350   43 37  350/  6/  8   N/A     0
DEVILS ISLAND    0400   48     330/ 15/ 16   N/A
SAXON HARBOR     0400   53     310/  2/  5   N/A
$$

LMZ867-665-643>646-300600-
LAKE MICHIGAN

STATION/POSITION TIME  TEMP    WIND        PRES    WAVE
                       AIR SEA DIR/SP/G            HT/PER
                 (UTC) (F)     (DEG/KT/KT) (MB)    (FT/S)
CHAMBERS ISLAND  0300   58      20/  6/  8   N/A
N MID LAKE BUOY  0350   47 37  200/  2/  4   N/A     1/ 4
NORTHPORT PIER   0400   58     310/  3/  4   N/A
SISTER BAY       0418   62     360/ 11/ 15   N/A
ALGOMA LAKESHORE 0423          320/  1/  5   N/A
KEWAUNEE LAKESHO 0400   61      CALM  /  2   N/A
SHEBOYGAN LAKESH 0400   61     350/  4/  6   N/A
PORT WASHINGTON  0240   57      CALM  /  2   N/A
ATWATER BUOY     0400   54     180/  8/ 10   N/A
MILWAUKEE LAKESH 0400   56     190/  2/  3   N/A
S MID LAKE BUOY  0350   48 38  210/  8/ 10   N/A     0
KENOSHA   LAKESH 0400   73     230/  6/  9   N/A
$$

TC  - TEMPERATURE IN CELSIUS
VSB - VISIBILITY IN STATUTE MILES
WCI - WIND CHILL INDEX
HX  - HEAT INDEX



USA.gov is the U.S. government's official web portal to all federal, state and local government web resources and services.